STARLINK-32176, 60340

Orbit data source: Space-Track

STARLINK-32176, 60340 is a payload satellite owned by SpaceX/Seattle (US) in LEO that was launched on Fri, 02 Aug 2024 UTC via an FALCON 9 launch vehicle from the Air Force Eastern Test Range (AFETR). Payloads include a variety of satellites, spacecraft, and rockets equipped with specific instruments for various scientific and technological missions. These include communications satellites like Starlink; space stations such as the ISS; scientific satellites like the Hubble; Earth observation satellites from companies like Planet Labs, Umbra, and HawkEye 360; GPS; miniature CubeSats for education and research; and military/defense satellites.

Loading next visibility...
STARLINK-32176 details
Identifier
60340, 2024-136M
Orbit
LEO
Last TLE update22 hours ago
Origin
Flag of USSpaceX/Seattle (US)
ManufacturerSpaceX/Seattle
MissionOperational spacecraft
Bus & MotorSTARLINK V2M, Unknown motor
Mass730 kg wet, ~700 kg dry
Launch date (UTC)
2024-08-02 (5 months ago)
Launch vehicle
FALCON 9
Launch site
Air Force Eastern Test Range (AFETR)
Object type
Payload
Rocket body
Debris
Shape & HBRUnknown
Radar Cross SectionLarge (>1 m²)

Expand to show TLE details & history

TLE from 22 hours ago
0 STARLINK-32176
1 60340U 24136M   24356.32665404 -.00000744  00000-0 -13007-4 0  9991
2 60340  53.1623 335.0475 0001489  89.9945 270.1227 15.30192790 22954
Epoch: 2024-12-21T07:50Z
Definitive object data (Epoch: 2024-12-21T07:50:22.909Z)
Latitude0.00005°
Longitude127.07267°
Altitude476.135 km
Speed7.629 km/s
True Right ascension22h 20m 11s
True Declination0° 00' 00"
Sunlit
Object was in daylight at TLE epoch
Visualization TLE readout
Latitude-53.10576°
Longitude25.85559°
Altitude494.717 km
Speed7.617 km/s
Apparent Right ascension16h 03m 23s
Apparent Declination-46° 45' 26"
Sunlit
Object is in daylight
Visualization observer readout
Local Sidereal Time04:27:03
Azimuth149.824° SSE
Elevation-81.923°
Doppler factor1
Orbital elements
Apogee altitude476.513 km
Perigee altitude474.472 km
Semi-major axis6,853.63 km
Eccentricity0.0001489
Inclination53.1623°
RAAN335.0475°
Arg. of periapsis89.9945°
True anomaly270.10564°
Mean anomaly270.1227°
Eccentric anomaly270.11417°
Mean motion3.82527 °/min
BSTAR-0.000013007
Orbital period94.11 mins
Loading maneuver chart data...
Loading historical data...
Loading historical data...
Loading historical data...
Loading historical data...
Loading historical data...
Loading historical data...
Loading historical data...

STARLINK-32176 Visibility forecast

Observer location: undefined°, undefined

Span
Click to sort rows by Start time (UTC) header in descending order
Start Az.
Max El. time (UTC)
Max El. Az.
Max El.
End time (UTC)
End Az.
5 mins2024-12-22 07:51:28.319Z333.3° NNW2024-12-22 07:53:28.319Z56.505° ENE36.584°2024-12-22 07:56:28.319Z111.52° ESE
5 mins2024-12-23 00:46:28.319Z202.321° SSW2024-12-23 00:48:28.319Z146.677° SSE36.778°2024-12-23 00:51:28.319Z63.313° ENE
4 mins2024-12-23 02:25:28.319Z300.633° NW2024-12-23 02:26:28.319Z325.291° NNW22.672°2024-12-23 02:29:28.319Z26.589° NE
|